Weather History for Gainesville, FL

Change the Weather History Date:

Friday, August 2, 2013

  Actual Average Record
Temperature  
Mean Temperature 82 °F 81 °F  
Max Temperature 92 °F 91 °F 99 °F (1999)
Min Temperature 71 °F 72 °F 68 °F (1966)
Degree Days  
Heating Degree Days 0 0  
Month to date heating degree days 0 0  
Since 1 June heating degree days 0 0  
Since 1 July heating degree days 0 0  
Cooling Degree Days 17 16  
Month to date cooling degree days 33 32  
Year to date cooling degree days 1552 1483  
Since 1 June cooling degree days 1020 973  
Growing Degree Days 31 (Base 50)    
Moisture  
Dew Point 71 °F    
Average Humidity 69    
Maximum Humidity 93    
Minimum Humidity 44    
Precipitation  
Precipitation 0.00 in 0.21 in 2.99 in (1978)
Month to date precipitation 0.46 0.41  
Year to date precipitation 34.36 29.59  
Snow  
Snow 0.00 in 0.00 in 0.00 in ()
Month to date snowfall 0.0 0.0  
Since 1 June snowfall 0.0 0.0  
Since 1 July snowfall 0.0 0.0  
Snow Depth 0.00 in    
Sea Level Pressure  
Sea Level Pressure 30.00 in    
Wind  
Wind Speed 3 mph (South)    
Max Wind Speed 15 mph    
Max Gust Speed 18 mph    
Visibility 8 miles    
Events      
T = Trace of Precipitation, MM = Missing Value Source: NWS Daily Summary

Daily Weather History Graph

Daily Weather History Graph

Search for Another Location

Airport:

Trip Planner

Search our weather history database for the weather conditions in past years. The results will help you decide how hot, cold, wet, or windy it might be!

Date:

Astronomy

Aug. 02, 2013 Rise Set
Actual Time 6:49 AM EDT 8:20 PM EDT
Civil Twilight 6:23 AM EDT 8:46 PM EDT
Nautical Twilight 5:52 AM EDT 9:17 PM EDT
Astronomical Twilight 5:20 AM EDT 9:49 PM EDT
Moon 3:12 AM EDT (8/2) 5:14 PM EDT (8/2)
Length of Visible Light 14h 22m
Length of Day
13h 31m
Waning Crescent, 16% of the Moon is Illuminated
Aug 2
Waning Crescent
Aug 6
New
Aug 14
First Quarter
Aug 20
Full
Aug 28
Last Quarter

Hourly Weather History & Observations

Time (EDT) Temp. Heat Index Dew Point Humidity Pressure Visibility Wind Dir Wind Speed Gust Speed Precip Events Conditions
12:17 AM 73.4 °F - 71.6 °F 94% 30.01 in 8.0 mi Calm Calm - N/A   Mostly Cloudy
12:27 AM 73.4 °F - 71.6 °F 94% 30.00 in 8.0 mi SSE 3.5 mph - N/A   Scattered Clouds
12:53 AM 73.9 °F - 72.0 °F 93% 30.01 in 7.0 mi Calm Calm - N/A   Clear
1:53 AM 73.0 °F - 71.1 °F 93% 30.00 in 5.0 mi Calm Calm - N/A   Clear
2:53 AM 73.0 °F - 71.1 °F 93% 29.98 in 6.0 mi Calm Calm - N/A   Clear
3:53 AM 73.0 °F - 71.1 °F 93% 29.96 in 7.0 mi Calm Calm - N/A   Clear
4:53 AM 72.0 °F - 70.0 °F 93% 29.96 in 7.0 mi Calm Calm - N/A   Clear
5:53 AM 71.1 °F - 70.0 °F 96% 29.98 in 6.0 mi NE 3.5 mph - N/A   Clear
6:53 AM 71.1 °F - 69.1 °F 93% 29.99 in 4.0 mi Calm Calm - N/A   Clear
7:53 AM 73.9 °F - 72.0 °F 93% 30.00 in 7.0 mi Calm Calm - N/A   Clear
8:53 AM 78.1 °F - 72.0 °F 81% 30.02 in 9.0 mi South 3.5 mph - N/A   Clear
9:53 AM 82.0 °F 87.4 °F 73.0 °F 74% 30.03 in 9.0 mi Calm Calm - N/A   Clear
10:53 AM 84.9 °F 91.4 °F 73.0 °F 67% 30.04 in 9.0 mi South 3.5 mph - N/A   Clear
11:53 AM 86.0 °F 92.2 °F 72.0 °F 63% 30.04 in 10.0 mi Calm Calm - N/A   Clear
12:53 PM 88.0 °F 93.8 °F 71.1 °F 57% 30.02 in 10.0 mi Calm Calm - N/A   Clear
1:53 PM 89.1 °F 95.0 °F 71.1 °F 55% 30.01 in 10.0 mi Variable 4.6 mph - N/A   Partly Cloudy
2:53 PM 91.0 °F 94.3 °F 66.9 °F 45% 30.00 in 10.0 mi South 4.6 mph - N/A   Partly Cloudy
3:53 PM 91.9 °F 98.4 °F 71.1 °F 50% 29.97 in 10.0 mi South 6.9 mph - N/A   Scattered Clouds
4:53 PM 89.1 °F 97.0 °F 73.0 °F 59% 29.97 in 10.0 mi NW 10.4 mph - N/A   Overcast
5:53 PM 88.0 °F 93.8 °F 71.1 °F 57% 29.96 in 10.0 mi West 6.9 mph - N/A   Clear
6:53 PM 88.0 °F 92.9 °F 70.0 °F 55% 29.98 in 10.0 mi WNW 3.5 mph - N/A   Scattered Clouds
7:53 PM 82.0 °F 87.4 °F 73.0 °F 74% 30.00 in 10.0 mi ESE 5.8 mph - N/A   Overcast
8:53 PM 79.0 °F - 73.0 °F 82% 30.03 in 10.0 mi SSE 10.4 mph - N/A   Overcast
9:53 PM 79.0 °F - 72.0 °F 79% 30.04 in 10.0 mi SSW 6.9 mph - N/A   Overcast
10:53 PM 78.1 °F - 72.0 °F 81% 30.04 in 10.0 mi Calm Calm - N/A   Clear
11:53 PM 77.0 °F - 73.0 °F 88% 30.04 in 8.0 mi Calm Calm - N/A   Clear